Lapse_Rate
1.5 1.7 2.1 2.3 2.1 2.3 2.2 2.1 1.5 1.3 1.8 1.6 1.0 1.7 2.3 1.9 2.0 1.8 1.7 1.8 1.7 2.6
0.4 0.6 1.1 0.9 0.9 1.0 1.4 1.4 1.8 1.9 2.0 1.1 0.5 1.6 1.8 1.9 2.4 1.9 1.8 1.8 1.8 2.1
0.3 0.5 0.5 0.6 0.7 0.7 1.1 1.5 1.4 1.7 1.0 1.6 1.6 2.0 1.5 1.3 1.3 1.4 1.3 1.6 2.0 2.1
0.8 1.0 0.9 1.1 1.3 1.5 1.2 1.1 1.5 1.6 1.4 1.5 1.0 0.7 0.4 0.7 1.0 1.2 1.3 1.6 1.9 2.7
0.8 0.8 1.5 2.0 2.0 1.9 2.1 2.3 2.3 1.6 1.6 1.7 0.5 0.1 0.5 0.6 0.4 0.7 1.3 1.6 1.8 2.6
1.1 1.5 1.9 1.9 1.8 1.3 1.3 1.2 1.4 1.3 0.6 0.3 1.0 0.8 0.6 0.5 0.6 0.6 0.5 0.8 1.6 3.4
1.2 1.3 1.6 2.0 2.0 1.9 1.6 1.1 0.9 1.0 0.9 0.8 0.6 0.0 -0.4 -0.3 -0.1 -0.2 0.1 0.7 1.9 3.1
0.8 0.7 0.6 0.8 1.7 1.7 1.5 1.2 0.9 0.6 0.3 0.1 0.1 0.1 0.1 -0.1 0.1 0.3 0.8 1.1 2.0 3.4
0.8 1.1 1.0 0.9 0.9 1.1 0.9 0.7 0.6 0.5 0.3 -0.0 0.3 0.6 0.6 -0.3 -0.3 -0.1 1.1 2.5 3.2 4.0
1.5 1.1 1.0 1.2 1.2 0.9 0.8 0.5 0.7 0.9 1.0 1.1 1.0 1.2 1.1 0.8 0.5 1.1 1.2 1.7 2.5 3.2
1.5 1.0 0.8 1.1 1.1 1.1 0.9 0.9 1.0 0.9 0.8 0.6 0.4 0.9 1.0 0.7 0.3 0.6 1.3 1.7 2.5 2.7
2.6 1.7 1.5 1.1 1.0 0.8 0.7 0.4 -0.6 0.3 0.2 -0.1 -0.2 1.0 1.2 0.4 0.0 0.8 2.0 2.9 2.6 2.5
3.1 2.4 1.7 1.6 0.9 1.0 1.0 0.2 0.4 -0.7 -0.3 0.6 0.1 1.5 1.6 0.2 1.2 1.9 2.9 3.0 2.6 3.8
3.1 2.4 2.1 1.3 1.0 0.4 0.8 0.8 0.3 0.0 -0.2 -0.0 1.5 2.1 2.3 2.2 2.2 3.7 3.6 2.3 2.7 3.0
Wind_Speed
3 3 2 4 4 5 6 6 10 9 7 7 9 4 2 2 3 4 3 3 2 3
4 2 0 2 2 3 4 4 7 8 8 6 7 8 6 4 4 3 3 3 3 3
3 2 0 1 2 3 4 6 6 6 7 8 7 6 5 3 2 3 1 2 4 3
4 3 2 1 2 4 5 7 8 8 7 6 7 5 5 4 3 2 3 4 4 5
5 3 1 2 4 4 4 6 9 8 9 7 5 5 5 5 4 4 4 3 4 5
4 3 4 3 2 3 5 5 6 7 7 6 6 6 5 5 5 4 2 1 2 5
7 5 4 3 4 4 5 6 6 6 7 7 7 5 5 4 4 2 1 1 3 3
10 8 6 4 4 5 6 6 6 7 6 6 6 5 6 5 4 3 2 1 1 2
9 9 6 6 6 5 5 6 6 6 6 6 3 8 10 7 4 3 4 4 3 2
9 9 8 6 6 8 8 6 7 8 8 8 7 10 9 9 5 4 4 3 3 2
11 11 8 7 8 7 6 9 8 8 7 6 6 9 7 7 5 3 4 4 4 5
10 10 8 8 7 6 6 6 5 4 7 6 5 9 7 6 4 4 5 4 5 5
9 9 9 7 6 5 5 5 5 5 5 9 6 12 13 9 4 5 4 4 4 9
10 9 7 6 4 4 5 6 6 6 4 6 8 9 14 15 6 5 5 5 4 4
Wind_Direction
113 140 189 217 204 195 198 191 162 156 170 164 136 161 183 144 156 172 188 200 220 244
45 48 281 232 201 191 168 155 171 174 168 154 135 164 170 166 160 178 187 197 209 226
41 46 102 209 187 179 171 154 145 157 139 152 147 155 147 131 143 168 185 226 216 217
8 24 42 66 195 188 156 148 146 148 140 142 137 148 135 145 162 182 213 221 232 239
324 334 329 196 181 178 175 160 152 150 146 149 145 152 149 158 168 180 211 228 234 247
321 286 272 256 206 171 149 137 135 142 142 141 159 160 159 161 171 182 186 248 276 264
316 296 265 231 199 190 166 152 150 152 154 159 166 157 156 161 165 155 165 211 243 267
319 308 285 255 218 187 174 169 164 157 154 149 163 170 173 176 169 175 188 202 267 265
312 299 264 235 217 208 187 175 169 172 165 167 173 182 181 168 158 167 195 201 200 212
316 297 266 239 212 203 195 178 183 182 181 188 188 186 182 177 173 170 193 185 182 171
326 314 297 239 218 207 190 193 186 191 193 186 191 188 183 182 162 161 187 182 187 175
315 307 293 260 231 199 195 198 190 190 190 192 192 181 192 152 157 178 191 183 172 165
306 299 291 265 222 198 197 186 185 196 197 198 190 198 186 172 180 190 186 181 175 186
312 305 291 275 221 198 190 179 190 191 197 215 202 204 196 186 185 198 193 195 191 197